Time,TemperatureF,DewpointF,PressureIn,WindDirection,WindDirectionDegrees,WindSpeedMPH,WindSpeedGustMPH,Humidity,HourlyPrecipIn,Conditions,Clouds,dailyrainin,SoftwareType,DateUTC
2013-11-07 00:10:00,33.5,15.0,30.37,SSE,150,0.0,0.0,46,0.00,,,0.00,weatherlink.com 1.10,2013-11-07 07:10:00,
2013-11-07 00:25:00,33.1,15.0,30.38,SSE,150,0.0,1.0,48,0.00,,,0.00,weatherlink.com 1.10,2013-11-07 07:25:00,
2013-11-07 00:40:00,34.1,17.0,30.37,West,275,0.0,3.0,49,0.00,,,0.00,weatherlink.com 1.10,2013-11-07 07:40:00,
2013-11-07 00:55:00,34.2,15.0,30.37,SSW,200,3.0,3.0,46,0.00,,,0.00,weatherlink.com 1.10,2013-11-07 07:55:00,
2013-11-07 01:10:00,35.7,16.0,30.37,WSW,250,0.0,5.0,44,0.00,,,0.00,weatherlink.com 1.10,2013-11-07 08:10:00,
2013-11-07 01:25:00,34.8,15.0,30.37,SSW,211,0.0,2.0,45,0.00,,,0.00,weatherlink.com 1.10,2013-11-07 08:25:00,
2013-11-07 01:40:00,33.7,15.0,30.37,SSW,213,0.0,2.0,47,0.00,,,0.00,weatherlink.com 1.10,2013-11-07 08:40:00,
2013-11-07 01:55:00,32.9,15.0,30.39,SSW,213,0.0,1.0,48,0.00,,,0.00,weatherlink.com 1.10,2013-11-07 08:55:00,
2013-11-07 02:11:00,32.6,15.0,30.39,SSW,213,1.0,2.0,49,0.00,,,0.00,weatherlink.com 1.10,2013-11-07 09:11:00,
2013-11-07 02:26:00,32.4,16.0,30.39,SSW,213,0.0,2.0,50,0.00,,,0.00,weatherlink.com 1.10,2013-11-07 09:26:00,
2013-11-07 02:41:00,31.9,16.0,30.39,West,265,0.0,0.0,52,0.00,,,0.00,weatherlink.com 1.10,2013-11-07 09:41:00,
2013-11-07 02:56:00,30.8,15.0,30.39,West,265,0.0,1.0,53,0.00,,,0.00,weatherlink.com 1.10,2013-11-07 09:56:00,
2013-11-07 03:11:00,30.8,15.0,30.39,SW,215,0.0,2.0,53,0.00,,,0.00,weatherlink.com 1.10,2013-11-07 10:11:00,
2013-11-07 03:26:00,30.9,16.0,30.39,SW,215,0.0,1.0,54,0.00,,,0.00,weatherlink.com 1.10,2013-11-07 10:26:00,
2013-11-07 03:41:00,30.2,16.0,30.39,WSW,243,1.0,2.0,56,0.00,,,0.00,weatherlink.com 1.10,2013-11-07 10:41:00,
2013-11-07 03:56:00,30.1,16.0,30.39,East,84,0.0,5.0,56,0.00,,,0.00,weatherlink.com 1.10,2013-11-07 10:56:00,
2013-11-07 04:11:00,30.0,16.0,30.39,SE,141,0.0,1.0,56,0.00,,,0.00,weatherlink.com 1.10,2013-11-07 11:11:00,
2013-11-07 04:26:00,29.8,17.0,30.39,SE,142,0.0,1.0,58,0.00,,,0.00,weatherlink.com 1.10,2013-11-07 11:26:00,
2013-11-07 04:41:00,30.3,17.0,30.39,West,261,0.0,2.0,57,0.00,,,0.00,weatherlink.com 1.10,2013-11-07 11:41:00,
2013-11-07 04:56:00,30.2,16.0,30.39,SW,235,0.0,2.0,57,0.00,,,0.00,weatherlink.com 1.10,2013-11-07 11:56:00,
2013-11-07 05:11:00,30.4,16.0,30.40,WSW,252,1.0,3.0,56,0.00,,,0.00,weatherlink.com 1.10,2013-11-07 12:11:00,
2013-11-07 05:26:00,30.8,16.0,30.40,WSW,258,0.0,3.0,54,0.00,,,0.00,weatherlink.com 1.10,2013-11-07 12:26:00,
2013-11-07 05:56:00,31.7,16.0,30.40,SSW,192,0.0,2.0,52,0.00,,,0.00,weatherlink.com 1.10,2013-11-07 12:56:00,
2013-11-07 06:11:00,31.0,15.0,30.40,West,277,0.0,2.0,52,0.00,,,0.00,weatherlink.com 1.10,2013-11-07 13:11:00,
2013-11-07 06:26:00,30.3,16.0,30.40,West,277,0.0,0.0,55,0.00,,,0.00,weatherlink.com 1.10,2013-11-07 13:26:00,
2013-11-07 06:41:00,29.2,16.0,30.41,West,277,0.0,0.0,58,0.00,,,0.00,weatherlink.com 1.10,2013-11-07 13:41:00,
2013-11-07 06:56:00,28.4,16.0,30.41,West,277,0.0,1.0,61,0.00,,,0.00,weatherlink.com 1.10,2013-11-07 13:56:00,
2013-11-07 07:11:00,28.8,18.0,30.41,West,277,0.0,0.0,63,0.00,,,0.00,weatherlink.com 1.10,2013-11-07 14:11:00,
2013-11-07 07:26:00,30.2,19.0,30.41,West,277,0.0,0.0,64,0.00,,,0.00,weatherlink.com 1.10,2013-11-07 14:26:00,
2013-11-07 07:41:00,32.3,20.0,30.41,East,89,0.0,2.0,60,0.00,,,0.00,weatherlink.com 1.10,2013-11-07 14:41:00,
2013-11-07 07:56:00,34.7,20.0,30.41,ENE,76,0.0,1.0,55,0.00,,,0.00,weatherlink.com 1.10,2013-11-07 14:56:00,
2013-11-07 08:11:00,37.4,19.0,30.41,ENE,76,0.0,0.0,48,0.00,,,0.00,weatherlink.com 1.10,2013-11-07 15:11:00,
2013-11-07 08:26:00,38.5,19.0,30.40,SE,130,0.0,1.0,45,0.00,,,0.00,weatherlink.com 1.10,2013-11-07 15:26:00,
2013-11-07 08:41:00,40.1,19.0,30.40,SSW,192,1.0,2.0,42,0.00,,,0.00,weatherlink.com 1.10,2013-11-07 15:41:00,
2013-11-07 08:56:00,42.5,18.0,30.39,WSW,237,1.0,5.0,38,0.00,,,0.00,weatherlink.com 1.10,2013-11-07 15:56:00,
2013-11-07 09:11:00,44.9,19.0,30.38,South,172,0.0,4.0,35,0.00,,,0.00,weatherlink.com 1.10,2013-11-07 16:11:00,
2013-11-07 09:27:00,47.0,19.0,30.37,SE,142,1.0,4.0,33,0.00,,,0.00,weatherlink.com 1.10,2013-11-07 16:27:00,
2013-11-07 09:42:00,47.9,20.0,30.37,SSW,196,0.0,2.0,33,0.00,,,0.00,weatherlink.com 1.10,2013-11-07 16:42:00,
2013-11-07 09:57:00,48.9,18.0,30.36,SSE,158,1.0,3.0,29,0.00,,,0.00,weatherlink.com 1.10,2013-11-07 16:57:00,
2013-11-07 10:12:00,49.7,18.0,30.36,SE,130,3.0,3.0,28,0.00,,,0.00,weatherlink.com 1.10,2013-11-07 17:12:00,
2013-11-07 10:27:00,51.2,18.0,30.35,SSW,196,4.0,4.0,27,0.00,,,0.00,weatherlink.com 1.10,2013-11-07 17:27:00,
2013-11-07 10:42:00,52.2,18.0,30.34,SE,142,0.0,3.0,26,0.00,,,0.00,weatherlink.com 1.10,2013-11-07 17:42:00,
2013-11-07 10:57:00,53.6,19.0,30.34,SE,126,0.0,2.0,26,0.00,,,0.00,weatherlink.com 1.10,2013-11-07 17:57:00,
2013-11-07 11:12:00,53.9,20.0,30.33,ESE,123,0.0,5.0,26,0.00,,,0.00,weatherlink.com 1.10,2013-11-07 18:12:00,
2013-11-07 11:27:00,54.0,21.0,30.32,NE,52,2.0,7.0,27,0.00,,,0.00,weatherlink.com 1.10,2013-11-07 18:27:00,
2013-11-07 11:42:00,54.2,20.0,30.31,NE,39,2.0,6.0,26,0.00,,,0.00,weatherlink.com 1.10,2013-11-07 18:42:00,
2013-11-07 11:57:00,54.7,20.0,30.30,NNE,28,1.0,5.0,26,0.00,,,0.00,weatherlink.com 1.10,2013-11-07 18:57:00,
2013-11-07 12:12:00,55.2,21.0,30.29,NE,50,1.0,4.0,26,0.00,,,0.00,weatherlink.com 1.10,2013-11-07 19:12:00,
2013-11-07 12:27:00,55.4,20.0,30.28,ENE,61,1.0,7.0,25,0.00,,,0.00,weatherlink.com 1.10,2013-11-07 19:27:00,
2013-11-07 12:42:00,55.6,20.0,30.27,East,89,2.0,6.0,25,0.00,,,0.00,weatherlink.com 1.10,2013-11-07 19:42:00,
2013-11-07 12:57:00,55.5,21.0,30.25,North,349,3.0,6.0,26,0.00,,,0.00,weatherlink.com 1.10,2013-11-07 19:57:00,
2013-11-07 13:12:00,55.6,20.0,30.24,NE,47,1.0,5.0,25,0.00,,,0.00,weatherlink.com 1.10,2013-11-07 20:12:00,
2013-11-07 13:27:00,55.8,20.0,30.24,NE,46,2.0,5.0,25,0.00,,,0.00,weatherlink.com 1.10,2013-11-07 20:27:00,
2013-11-07 13:42:00,56.8,21.0,30.23,NNE,27,2.0,4.0,25,0.00,,,0.00,weatherlink.com 1.10,2013-11-07 20:42:00,
2013-11-07 13:57:00,56.3,22.0,30.23,NNE,28,3.0,6.0,26,0.00,,,0.00,weatherlink.com 1.10,2013-11-07 20:57:00,
2013-11-07 14:12:00,56.2,21.0,30.22,NNE,22,3.0,7.0,25,0.00,,,0.00,weatherlink.com 1.10,2013-11-07 21:12:00,
2013-11-07 14:27:00,56.5,21.0,30.21,NNE,31,2.0,5.0,25,0.00,,,0.00,weatherlink.com 1.10,2013-11-07 21:27:00,
2013-11-07 14:42:00,56.6,21.0,30.21,NE,51,0.0,8.0,25,0.00,,,0.00,weatherlink.com 1.10,2013-11-07 21:42:00,
2013-11-07 14:57:00,57.1,20.0,30.20,ENE,67,0.0,5.0,24,0.00,,,0.00,weatherlink.com 1.10,2013-11-07 21:57:00,
2013-11-07 15:12:00,57.2,22.0,30.20,NNE,26,1.0,4.0,25,0.00,,,0.00,weatherlink.com 1.10,2013-11-07 22:12:00,
2013-11-07 15:28:00,57.0,20.0,30.20,NE,43,0.0,3.0,24,0.00,,,0.00,weatherlink.com 1.10,2013-11-07 22:28:00,
2013-11-07 15:43:00,56.5,21.0,30.19,NE,43,0.0,1.0,25,0.00,,,0.00,weatherlink.com 1.10,2013-11-07 22:43:00,
2013-11-07 15:58:00,56.3,22.0,30.19,NE,43,1.0,2.0,26,0.00,,,0.00,weatherlink.com 1.10,2013-11-07 22:58:00,
2013-11-07 16:13:00,55.9,21.0,30.19,North,355,2.0,3.0,26,0.00,,,0.00,weatherlink.com 1.10,2013-11-07 23:13:00,
2013-11-07 16:43:00,53.6,24.0,30.18,NNW,334,2.0,3.0,32,0.00,,,0.00,weatherlink.com 1.10,2013-11-07 23:43:00,
2013-11-07 16:58:00,52.0,25.0,30.17,NNW,333,0.0,0.0,35,0.00,,,0.00,weatherlink.com 1.10,2013-11-07 23:58:00,
2013-11-07 17:13:00,50.8,25.0,30.16,NW,319,0.0,2.0,37,0.00,,,0.00,weatherlink.com 1.10,2013-11-08 00:13:00,
2013-11-07 17:28:00,49.8,25.0,30.16,NW,318,0.0,2.0,38,0.00,,,0.00,weatherlink.com 1.10,2013-11-08 00:28:00,
2013-11-07 17:43:00,49.0,25.0,30.16,NW,318,0.0,2.0,39,0.00,,,0.00,weatherlink.com 1.10,2013-11-08 00:43:00,
2013-11-07 17:58:00,47.7,25.0,30.15,NW,319,0.0,0.0,41,0.00,,,0.00,weatherlink.com 1.10,2013-11-08 00:58:00,
2013-11-07 18:13:00,46.0,25.0,30.14,NW,318,0.0,0.0,44,0.00,,,0.00,weatherlink.com 1.10,2013-11-08 01:13:00,
2013-11-07 18:28:00,44.4,25.0,30.13,NW,318,0.0,0.0,46,0.00,,,0.00,weatherlink.com 1.10,2013-11-08 01:28:00,
2013-11-07 18:43:00,43.1,24.0,30.14,NW,319,0.0,0.0,48,0.00,,,0.00,weatherlink.com 1.10,2013-11-08 01:43:00,
2013-11-07 18:58:00,41.9,24.0,30.13,NW,318,0.0,1.0,49,0.00,,,0.00,weatherlink.com 1.10,2013-11-08 01:58:00,
2013-11-07 19:13:00,42.5,23.0,30.13,SSW,194,1.0,4.0,46,0.00,,,0.00,weatherlink.com 1.10,2013-11-08 02:13:00,
2013-11-07 19:28:00,44.1,23.0,30.12,SSW,198,1.0,4.0,43,0.00,,,0.00,weatherlink.com 1.10,2013-11-08 02:28:00,
2013-11-07 19:43:00,44.1,23.0,30.12,SSW,199,1.0,1.0,43,0.00,,,0.00,weatherlink.com 1.10,2013-11-08 02:43:00,
2013-11-07 19:58:00,43.0,23.0,30.11,SSW,209,0.0,1.0,45,0.00,,,0.00,weatherlink.com 1.10,2013-11-08 02:58:00,
2013-11-07 20:13:00,42.2,23.0,30.11,SSW,209,0.0,2.0,46,0.00,,,0.00,weatherlink.com 1.10,2013-11-08 03:13:00,
2013-11-07 20:28:00,42.0,22.0,30.10,SSW,209,0.0,1.0,46,0.00,,,0.00,weatherlink.com 1.10,2013-11-08 03:28:00,
2013-11-07 20:43:00,41.3,22.0,30.10,SSW,209,0.0,1.0,47,0.00,,,0.00,weatherlink.com 1.10,2013-11-08 03:43:00,
2013-11-07 20:58:00,40.5,23.0,30.09,SSW,209,1.0,1.0,49,0.00,,,0.00,weatherlink.com 1.10,2013-11-08 03:58:00,
2013-11-07 21:13:00,39.6,23.0,30.08,SSW,209,0.0,2.0,51,0.00,,,0.00,weatherlink.com 1.10,2013-11-08 04:13:00,
2013-11-07 21:28:00,38.3,23.0,30.07,SSW,209,0.0,0.0,54,0.00,,,0.00,weatherlink.com 1.10,2013-11-08 04:28:00,
2013-11-07 21:43:00,37.5,23.0,30.06,SSW,209,0.0,2.0,56,0.00,,,0.00,weatherlink.com 1.10,2013-11-08 04:43:00,
2013-11-07 21:58:00,36.8,23.0,30.05,WSW,238,0.0,2.0,57,0.00,,,0.00,weatherlink.com 1.10,2013-11-08 04:58:00,
2013-11-07 22:13:00,35.9,23.0,30.06,NW,306,1.0,4.0,60,0.00,,,0.00,weatherlink.com 1.10,2013-11-08 05:13:00,
2013-11-07 22:28:00,35.4,23.0,30.05,NW,306,0.0,2.0,60,0.00,,,0.00,weatherlink.com 1.10,2013-11-08 05:28:00,
2013-11-07 22:43:00,34.9,23.0,30.04,West,264,0.0,3.0,63,0.00,,,0.00,weatherlink.com 1.10,2013-11-08 05:43:00,
2013-11-07 22:58:00,34.7,23.0,30.03,West,264,0.0,6.0,63,0.00,,,0.00,weatherlink.com 1.10,2013-11-08 05:58:00,
2013-11-07 23:13:00,35.1,23.0,30.02,West,264,0.0,1.0,62,0.00,,,0.00,weatherlink.com 1.10,2013-11-08 06:13:00,
2013-11-07 23:28:00,35.3,23.0,30.02,West,278,0.0,4.0,60,0.00,,,0.00,weatherlink.com 1.10,2013-11-08 06:28:00,
2013-11-07 23:43:00,35.8,23.0,30.01,SW,220,0.0,2.0,60,0.00,,,0.00,weatherlink.com 1.10,2013-11-08 06:43:00,
2013-11-07 23:58:00,34.7,23.0,30.00,SW,220,0.0,1.0,63,0.00,,,0.00,weatherlink.com 1.10,2013-11-08 06:58:00,